Flag for Germany Weather past 2 weeks in Vechta, Lower Saxony, Germany

Now
75 °F

Passing clouds.


Feels Like: 77 °F
Forecast: 58 / 83 °F
Wind: 8 mph from Northeast

Location: Bremen Airport

Current Time: Jun 30, 2015 at 7:14:37 PM

Latest Report: Jun 30, 2015 at 6:20 PM


Visibility: N/A

Pressure: 30.18 "Hg

Humidity: 39%

Dew point: 48 °F

Location of VechtaLocation

Historic Weather in Vechta — Graph

°F

Vechta temperature yesterday

Maximum temperature yesterday: 77 °F (at 2:50 PM)
Minimum temperature yesterday: 57 °F (at 5:20 AM)
Average temperature yesterday: 66 °F

Past Weeks' High & Low Weather Summary

 TemperatureHumidityPressure
High77 °F (Jun 29, 2:50 PM)100% (Jun 17, 1:50 AM)30.27 "Hg (Jun 17, 1:50 AM)
Low41 °F (Jun 17, 4:20 AM)36% (Jun 30, 3:50 PM)29.65 "Hg (Jun 22, 7:50 PM)
Average59 °F76%30.04 "Hg
* Reported Jun 15 5:20 PM — Jun 30 5:50 PM, Vechta, Weather by CustomWeather, © 2015

Note: Actual official high and low records may vary slightly from our data, if they occured in-between our weather recording intervals... More about our weather records

Advertising

Vechta weather history for previous 24 hours

 ConditionsComfort  
Time TempWeatherWind HumidityBarometerVisibility
5:50 PM
Tue, Jun 30
75 °FPassing clouds.8 mph41%30.18 "HgN/A
4:50 PM75 °FPassing clouds.8 mph41%30.18 "HgN/A
4:20 PM75 °FSunny.7 mph39%30.18 "Hg10 mi
3:50 PM75 °FPassing clouds.7 mph36%30.18 "HgN/A
2:50 PM73 °FSunny.6 mph38%30.21 "Hg10 mi
2:20 PM75 °FPassing clouds.8 mph39%30.21 "HgN/A
1:50 PM73 °FPassing clouds.7 mph41%30.21 "HgN/A
1:20 PM73 °FSunny.6 mph44%30.21 "Hg10 mi
12:50 PM73 °FPassing clouds.8 mph41%30.21 "HgN/A
12:20 PM72 °FSunny.3 mph44%30.21 "Hg10 mi
11:50 AM72 °FScattered clouds.7 mph41%30.21 "HgN/A
11:20 AM70 °FPassing clouds.6 mph46%30.21 "HgN/A
10:50 AM70 °FSunny.2 mph50%30.21 "Hg10 mi
10:20 AM68 °FPassing clouds.5 mph56%30.21 "HgN/A
9:50 AM68 °FPassing clouds.5 mph53%30.21 "HgN/A
9:20 AM66 °FPassing clouds.5 mph56%30.24 "HgN/A
8:50 AM64 °FSunny.1 mph68%30.21 "Hg10 mi
8:20 AM63 °FSunny.2 mph77%30.21 "Hg10 mi
7:50 AM61 °FSunny.1 mph83%30.21 "Hg10 mi
7:20 AM57 °FSunny.2 mph94%30.21 "Hg10 mi
6:50 AM55 °FSunny.2 mph94%30.21 "Hg10 mi
6:20 AM52 °FSunny.2 mph100%30.21 "Hg10 mi
5:50 AM50 °FFog.3 mph100%30.21 "HgN/A
5:20 AM48 °FFog.2 mph100%30.21 "HgN/A
4:50 AM50 °FFog.2 mph94%30.21 "Hg1 mi
4:20 AM50 °FFog.1 mph100%30.18 "HgN/A
3:50 AM52 °FFog.No wind94%30.18 "HgN/A
3:20 AM52 °FClear.2 mph94%30.18 "Hg10 mi
2:50 AM52 °FClear.3 mph100%30.21 "Hg10 mi
2:20 AM54 °FClear.3 mph94%30.21 "Hg10 mi
1:50 AM55 °FClear.No wind88%30.18 "Hg10 mi
1:20 AM61 °FClear.5 mph72%30.21 "Hg10 mi
12:50 AM61 °FPassing clouds.6 mph77%30.21 "HgN/A
12:20 AM59 °FClear.2 mph77%30.21 "Hg10 mi
11:20 PM
Mon, Jun 29
63 °FClear.8 mph68%30.21 "Hg10 mi
10:50 PM63 °FSunny.6 mph73%30.18 "Hg10 mi
10:20 PM64 °FPassing clouds.8 mph64%30.18 "HgN/A
9:50 PM66 °FSunny.9 mph64%30.18 "Hg10 mi
9:20 PM66 °FSunny.9 mph60%30.18 "Hg10 mi
8:50 PM68 °FPartly sunny.9 mph49%30.18 "HgN/A
8:20 PM68 °FBroken clouds.10 mph49%30.18 "HgN/A
7:50 PM70 °FBroken clouds.9 mph50%30.15 "HgN/A
7:20 PM68 °FPartly sunny.15 mph56%30.15 "HgN/A
Weather by CustomWeather, © 2015

See weather overviewHow to use our weather pages